Regional Weather Roundup
Issued by NWS

Home | Current Version | Previous Version | Graphics & Text | Print | Product List | Glossary On
Versions: 1 2 3 4 5 6 7 8 9 10 11 12 13 14 15 16 17 18 19 20 21 22 23 24 25 26 27 28 29 30 31 32 33 34 35 36 37 38 39 40 41 42 43 44 45 46 47 48 49 50
339
ASUS44 KLIX 051901
RWRLA
LOUISIANA WEATHER ROUNDUP
NATIONAL WEATHER SERVICE NEW ORLEANS LA
100 PM CST THU MAR 05 2015

NOTE: "FAIR" INDICATES FEW OR NO CLOUDS BELOW 12,000 FEET WITH NO
      SIGNIFICANT WEATHER AND/OR OBSTRUCTIONS TO VISIBILITY.
      SKY/WX - SKY CONDITION AND SIGNIFICANT WEATHER.
      TMP - AIR TEMPERATURE.    DP   - DEWPOINT TEMPERATURE.
      RH  - RELATIVE HUMIDITY.  PRES - PRESSURE.
      HX  - HEAT INDEX.         WCI  - WIND CHILL INDEX.

*  THESE STATIONS ARE NOT NWS OR FAA STATIONS AND ARE NOT UNDER
   NWS QUALITY CONTROL.

LAZ040-048-061>063-065-066-069-052000-
SOUTHEAST LOUISIANA

CITY           SKY/WX    TMP DP  RH WIND       PRES   REMARKS
N.O. AUDUBON     N/A     44  39  81 MISG        N/A
N.O. INTL ARPT CLOUDY    42  36  79 N23G33    30.25F
N.O. LAKEFRONT CLOUDY    45  38  76 N26G33    30.25F
SLIDELL        CLOUDY    41  35  79 N21       30.25S
BATON ROUGE    LGT RAIN  35  29  78 N16G23    30.36R WCI  25
BOOTHVILLE     CLOUDY    50  44  80 N21G33    30.17S
BELLE CHASSE   CLOUDY    46  36  68 N15G30    30.20F
BOGALUSA*        N/A     38  32  81 N20G26    30.31S WCI  27
GALLIANO*      CLOUDY    49  41  73 N25G37    30.20F
NEW ROADS*     NOT AVBL
GONZALES*      NOT AVBL
HAMMOND*       NOT AVBL
HOUMA*         NOT AVBL
PORT FOURCHON* CLOUDY    48  43  81 N21G33    30.22S

$$

LAZ041-044-053-054-052000-
SOUTHWEST LOUISIANA

CITY           SKY/WX    TMP DP  RH WIND       PRES   REMARKS
LAKE CHARLES   CLOUDY    36  31  82 N22G36    30.38F WCI  25
LAFAYETTE      MIX PCPN  33  28  81 N23G31    30.37S WCI  21
PATTERSON      CLOUDY    37  34  87 N21G28    30.28R WCI  27
SALT POINT       N/A     38  34  85 N15G28    30.27R WCI  29
NEW IBERIA     FLURRIES  35  29  78 N25G32    30.35R WCI  23
CHENAULT AIRPK NOT AVBL

$$

LAZ027-028-052000-
CENTRAL LOUISIANA

CITY           SKY/WX    TMP DP  RH WIND       PRES   REMARKS
FORT POLK      CLOUDY    34  27  77 N13G20    30.43F WCI  25
ALEXANDRIA INT CLOUDY    32  25  75 N18G24    30.45F WCI  20
ALEXANDRIA     CLOUDY    34  25  69 N13G24    30.46R WCI  25

$$

LAZ001-002-052000-
NORTHWEST LOUISIANA

CITY           SKY/WX    TMP DP  RH WIND       PRES   REMARKS
SHREVEPORT     MOSUNNY   39  23  52 N13G23    30.53F WCI  31
BARKSDALE AFB  NOT AVBL
DTN SHREVEPORT SUNNY     37  20  50 N15G22    30.54F WCI  28

$$

LAZ014-016-052000-
NORTHEAST LOUISIANA

CITY           SKY/WX    TMP DP  RH WIND       PRES   REMARKS
MONROE         CLOUDY    34  22  61 N14       30.51F WCI  25
TALLULAH       CLOUDY    29  21  72 N23G33    30.49F WCI  15

$$




USA.gov is the U.S. government's official web portal to all federal, state and local government web resources and services.